�������l�o���
Date,Time,MP-1(��Sv/h),MP-2(��Sv/h),MP-3(��Sv/h),MP-4(��Sv/h),MP-5(��Sv/h),MP-6(��Sv/h),MP-7(��Sv/h),MP-8(��Sv/h),����,����(m/s),���J
2022/11/21,00:00,0.590,0.854,0.538,1.085,0.753,0.344,0.600,0.564,�k�k��,3.7,�L
2022/11/21,00:10,0.590,0.851,0.538,1.083,0.752,0.343,0.597,0.565,�k�k��,4.0,�L
2022/11/21,00:20,0.586,0.846,0.535,1.081,0.747,0.343,0.596,0.563,�k��,2.3,�L
2022/11/21,00:30,0.585,0.840,0.533,1.074,0.743,0.342,0.594,0.561,�k�k��,0.8,�L
2022/11/21,00:40,0.582,0.831,0.531,1.064,0.735,0.341,0.590,0.562,�k�k��,1.7,�L
2022/11/21,00:50,0.581,0.833,0.533,1.062,0.736,0.342,0.592,0.559,�k�k��,3.7,�L
2022/11/21,01:00,0.582,0.834,0.531,1.060,0.737,0.342,0.592,0.561,�k�k��,4.3,�L
2022/11/21,01:10,0.581,0.833,0.532,1.059,0.735,0.341,0.592,0.560,�k�k��,4.1,�L
2022/11/21,01:20,0.581,0.833,0.532,1.060,0.735,0.342,0.592,0.561,�k�k��,4.6,�L
2022/11/21,01:30,0.580,0.830,0.528,1.059,0.734,0.341,0.591,0.560,�k��,4.9,�L
2022/11/21,01:40,0.577,0.830,0.529,1.057,0.735,0.340,0.591,0.560,�k�k��,5.9,�L
2022/11/21,01:50,0.579,0.828,0.529,1.056,0.732,0.340,0.590,0.560,�k�k��,7.1,�L
2022/11/21,02:00,0.577,0.828,0.528,1.056,0.732,0.341,0.590,0.559,�k�k��,6.8,�L
2022/11/21,02:10,0.578,0.828,0.527,1.054,0.731,0.340,0.590,0.558,�k�k��,6.8,�L
2022/11/21,02:20,0.576,0.826,0.527,1.052,0.731,0.339,0.589,0.558,�k�k��,7.7,�L
2022/11/21,02:30,0.576,0.825,0.527,1.054,0.728,0.339,0.590,0.559,�k�k��,7.3,�L
2022/11/21,02:40,0.574,0.823,0.524,1.052,0.729,0.339,0.589,0.559,�k�k��,7.5,�L
2022/11/21,02:50,0.574,0.823,0.526,1.052,0.729,0.340,0.589,0.557,�k�k��,7.9,�L
2022/11/21,03:00,0.574,0.823,0.525,1.049,0.728,0.339,0.589,0.557,�k�k��,8.0,�L
2022/11/21,03:10,0.575,0.823,0.524,1.051,0.728,0.339,0.589,0.558,�k�k��,7.4,�L
2022/11/21,03:20,0.573,0.824,0.524,1.050,0.728,0.339,0.589,0.557,�k�k��,7.6,�L
2022/11/21,03:30,0.573,0.823,0.523,1.050,0.728,0.338,0.588,0.557,�k�k��,7.2,�L
2022/11/21,03:40,0.572,0.822,0.524,1.050,0.724,0.337,0.589,0.557,�k�k��,7.1,�L
2022/11/21,03:50,0.573,0.822,0.524,1.049,0.726,0.337,0.590,0.557,�k�k��,7.8,�L
2022/11/21,04:00,0.572,0.823,0.524,1.049,0.724,0.337,0.588,0.557,�k�k��,7.4,�L
2022/11/21,04:10,0.572,0.821,0.523,1.047,0.726,0.336,0.589,0.557,�k�k��,6.5,�L
2022/11/21,04:20,0.571,0.821,0.523,1.045,0.724,0.338,0.588,0.556,�k�k��,6.2,�L
2022/11/21,04:30,0.572,0.819,0.522,1.049,0.723,0.337,0.589,0.556,�k�k��,7.5,�L
2022/11/21,04:40,0.570,0.818,0.521,1.046,0.723,0.336,0.589,0.556,�k�k��,8.1,�L
2022/11/21,04:50,0.570,0.819,0.521,1.047,0.724,0.335,0.589,0.557,�k�k��,8.2,�L
2022/11/21,05:00,0.571,0.818,0.522,1.045,0.724,0.335,0.589,0.556,�k��,8.8,�L
2022/11/21,05:10,0.569,0.819,0.522,1.043,0.724,0.335,0.588,0.557,�k�k��,7.7,�L
2022/11/21,05:20,0.570,0.819,0.521,1.045,0.723,0.335,0.587,0.556,�k��,7.0,�L
2022/11/21,05:30,0.569,0.816,0.520,1.044,0.721,0.335,0.588,0.554,�k��,7.8,�L
2022/11/21,05:40,0.569,0.818,0.520,1.042,0.720,0.336,0.587,0.555,�k�k��,7.5,�L
2022/11/21,05:50,0.569,0.815,0.520,1.041,0.721,0.337,0.587,0.555,�k�k��,6.7,�L
2022/11/21,06:00,0.568,0.812,0.520,1.038,0.715,0.336,0.586,0.554,�k�k��,7.4,�L
2022/11/21,06:10,0.567,0.811,0.519,1.038,0.715,0.334,0.585,0.554,�k�k��,7.1,�L
2022/11/21,06:20,0.565,0.809,0.520,1.034,0.716,0.335,0.586,0.553,�k��,6.7,�L
2022/11/21,06:30,0.566,0.809,0.518,1.035,0.713,0.334,0.584,0.553,�k�k��,8.1,�L
2022/11/21,06:40,0.564,0.809,0.518,1.031,0.714,0.335,0.585,0.555,�k��,7.8,�L
2022/11/21,06:50,0.566,0.809,0.519,1.030,0.715,0.336,0.584,0.552,�k��,6.0,�L
2022/11/21,07:00,0.565,0.809,0.519,1.032,0.716,0.333,0.583,0.552,�k��,5.9,�L
2022/11/21,07:10,0.566,0.809,0.520,1.029,0.714,0.334,0.583,0.553,�k�k��,5.7,�L
2022/11/21,07:20,0.565,0.809,0.519,1.033,0.714,0.334,0.583,0.552,�k��,4.6,�L
2022/11/21,07:30,0.565,0.810,0.520,1.032,0.713,0.334,0.584,0.554,�k�k��,4.8,�L
2022/11/21,07:40,0.566,0.808,0.520,1.030,0.714,0.334,0.582,0.552,�k�k��,5.7,�L
2022/11/21,07:50,0.565,0.807,0.517,1.029,0.712,0.334,0.582,0.552,�k�k��,6.1,�L
2022/11/21,08:00,0.565,0.806,0.518,1.031,0.714,0.333,0.583,0.551,�k�k��,5.7,�L
2022/11/21,08:10,0.565,0.807,0.519,1.029,0.714,0.332,0.582,0.551,�k�k��,6.4,�L
2022/11/21,08:20,0.565,0.807,0.518,1.031,0.713,0.334,0.584,0.551,�k�k��,6.2,�L
2022/11/21,08:30,0.567,0.808,0.517,1.030,0.713,0.333,0.582,0.552,�k�k��,4.9,�L
2022/11/21,08:40,0.567,0.807,0.517,1.032,0.714,0.332,0.583,0.553,�k�k��,4.2,��
2022/11/21,08:50,0.566,0.806,0.517,1.032,0.714,0.332,0.582,0.551,�k,4.6,��
2022/11/21,09:00,0.567,0.807,0.518,1.033,0.714,0.332,0.583,0.552,�k,4.2,��
2022/11/21,09:10,0.564,0.809,0.516,1.031,0.713,0.331,0.585,0.552,�k�k��,5.1,��
2022/11/21,09:20,0.565,0.809,0.515,1.032,0.715,0.331,0.584,0.552,�k�k��,4.3,��
2022/11/21,09:30,0.565,0.808,0.513,1.030,0.715,0.330,0.584,0.553,�k�k��,4.3,��
2022/11/21,09:40,0.565,0.808,0.516,1.031,0.714,0.331,0.583,0.552,�k�k��,3.7,��
2022/11/21,09:50,0.563,0.808,0.515,1.032,0.713,0.331,0.583,0.554,�k�k��,4.1,��
2022/11/21,10:00,0.563,0.809,0.515,1.030,0.716,0.332,0.583,0.551,�k,2.6,��
2022/11/21,10:10,0.566,0.811,0.514,1.031,0.715,0.331,0.584,0.552,�k�k��,3.3,�L
2022/11/21,10:20,0.564,0.807,0.513,1.031,0.715,0.332,0.583,0.553,�k�k��,3.8,��
2022/11/21,10:30,0.565,0.809,0.514,1.030,0.712,0.331,0.583,0.550,�k�k��,4.4,�L
2022/11/21,10:40,0.564,0.809,0.516,1.031,0.714,0.332,0.583,0.551,�k�k��,4.7,�L
2022/11/21,10:50,0.563,0.810,0.517,1.032,0.715,0.332,0.584,0.553,�k�k��,4.6,�L
2022/11/21,11:00,-,0.809,0.517,1.033,0.716,0.332,0.583,0.552,�k�k��,5.5,�L
2022/11/21,11:10,-,0.809,0.515,1.032,0.715,0.332,0.584,0.551,�k�k��,5.1,��
2022/11/21,11:20,-,0.810,0.515,1.033,0.715,0.331,0.585,0.552,�k�k��,4.9,�L
2022/11/21,11:30,-,0.811,0.517,1.032,0.716,0.332,0.582,0.552,�k��,4.5,�L
2022/11/21,11:40,-,0.813,0.516,1.032,0.717,0.330,0.583,0.552,�k��,5.3,��
2022/11/21,11:50,-,0.812,0.517,1.032,0.718,0.332,0.584,0.552,�k�k��,5.0,��
2022/11/21,12:00,-,0.813,0.517,1.033,0.717,0.332,0.585,0.553,�k�k��,4.8,��
2022/11/21,12:10,-,0.812,0.517,1.033,0.719,0.332,0.584,0.551,�k�k��,5.0,��
2022/11/21,12:20,-,0.812,0.517,1.034,0.713,0.331,0.584,0.553,�k�k��,4.0,��
2022/11/21,12:30,0.563,0.811,0.516,1.031,0.715,0.331,0.587,0.554,�k�k��,4.8,��
2022/11/21,12:40,0.563,0.812,0.516,1.034,0.716,0.331,0.584,0.553,�k�k��,5.2,��
2022/11/21,12:50,0.564,0.809,0.517,1.033,0.715,0.331,0.585,0.550,�k�k��,4.8,��
2022/11/21,13:00,0.564,0.810,0.516,1.035,0.717,0.330,0.585,0.552,�k�k��,5.0,��
2022/11/21,13:10,0.564,0.810,0.515,1.033,0.718,0.331,0.587,0.551,�k��,3.9,��
2022/11/21,13:20,0.565,0.810,0.515,1.032,0.715,0.330,0.586,0.552,�k�k��,4.6,��
2022/11/21,13:30,0.564,0.810,0.516,1.033,0.716,0.331,0.586,0.550,�k�k��,4.4,��
2022/11/21,13:40,0.564,0.810,0.517,1.034,0.717,0.332,0.586,0.551,�k�k��,4.7,��
2022/11/21,13:50,0.566,0.811,0.516,1.033,0.717,0.330,0.586,0.552,�k�k��,4.8,��
2022/11/21,14:00,0.567,0.811,0.517,1.036,0.717,0.332,0.586,0.551,�k�k��,4.0,��
2022/11/21,14:10,0.565,0.810,0.517,1.035,0.717,0.331,0.586,0.552,�k,4.8,��
2022/11/21,14:20,0.566,0.812,0.517,1.036,0.716,0.331,0.587,0.554,�k�k��,3.9,��
2022/11/21,14:30,0.564,0.811,0.516,1.034,0.718,0.331,0.587,0.551,�k�k��,3.8,��
2022/11/21,14:40,0.566,0.813,0.519,1.036,0.719,0.332,0.587,0.553,�k�k��,4.1,��
2022/11/21,14:50,0.566,0.812,0.518,1.035,0.716,0.331,0.586,0.552,�k�k��,4.1,��
2022/11/21,15:00,0.565,0.814,0.516,1.037,0.717,0.332,0.584,0.551,�k�k��,4.5,��
2022/11/21,15:10,0.566,0.812,0.519,1.036,0.718,0.330,0.586,0.554,�k�k��,4.5,��
2022/11/21,15:20,0.567,0.815,0.518,1.035,0.719,0.333,0.586,0.553,�k�k��,3.9,��
2022/11/21,15:30,0.565,0.816,0.518,1.037,0.718,0.331,0.584,0.552,�k�k��,3.1,��
2022/11/21,15:40,0.568,0.817,0.518,1.036,0.718,0.331,0.587,0.551,�k�k��,2.6,��
2022/11/21,15:50,0.567,0.816,0.519,1.038,0.721,0.333,0.586,0.553,�k�k��,3.2,��
2022/11/21,16:00,0.566,0.817,0.519,1.034,0.718,0.333,0.586,0.554,�k�k��,2.5,��
2022/11/21,16:10,0.568,0.818,0.518,1.038,0.719,0.333,0.586,0.555,�k�k��,2.0,��
2022/11/21,16:20,0.568,0.816,0.520,1.037,0.722,0.332,0.584,0.555,�k�k��,2.0,��
2022/11/21,16:30,0.567,0.819,0.519,1.037,0.720,0.333,0.585,0.554,�k�k��,2.5,��
2022/11/21,16:40,0.567,0.816,0.518,1.035,0.720,0.330,0.587,0.556,�k�k��,2.6,��
2022/11/21,16:50,0.567,0.817,0.518,1.038,0.723,0.331,0.587,0.556,�k�k��,2.3,��
2022/11/21,17:00,0.569,0.816,0.519,1.037,0.722,0.331,0.587,0.555,�k�k��,2.6,��
2022/11/21,17:10,0.569,0.817,0.519,1.036,0.722,0.332,0.587,0.555,�k�k��,2.9,��
2022/11/21,17:20,0.567,0.817,0.520,1.037,0.721,0.334,0.586,0.553,�k�k��,2.8,��
2022/11/21,17:30,0.567,0.819,0.519,1.038,0.721,0.332,0.587,0.554,�k�k��,2.8,��
2022/11/21,17:40,0.568,0.818,0.517,1.035,0.721,0.332,0.587,0.553,�k�k��,3.1,��
2022/11/21,17:50,0.568,0.815,0.518,1.036,0.721,0.332,0.588,0.553,�k�k��,3.3,��
2022/11/21,18:00,0.567,0.817,0.517,1.036,0.720,0.332,0.589,0.554,�k�k��,3.7,��
2022/11/21,18:10,0.566,0.816,0.518,1.037,0.720,0.331,0.586,0.554,�k�k��,3.9,��
2022/11/21,18:20,0.569,0.817,0.520,1.038,0.722,0.331,0.587,0.553,�k�k��,3.3,��
2022/11/21,18:30,0.568,0.817,0.518,1.037,0.719,0.332,0.587,0.554,�k�k��,3.9,��
2022/11/21,18:40,0.567,0.819,0.519,1.035,0.721,0.332,0.586,0.554,�k�k��,3.7,��
2022/11/21,18:50,0.568,0.817,0.520,1.035,0.722,0.331,0.588,0.554,�k�k��,3.9,��
2022/11/21,19:00,0.568,0.818,0.518,1.037,0.721,0.332,0.587,0.554,�k�k��,3.6,��
2022/11/21,19:10,0.568,0.819,0.518,1.036,0.721,0.332,0.586,0.554,�k�k��,3.9,��
2022/11/21,19:20,0.569,0.818,0.519,1.038,0.723,0.332,0.587,0.553,�k�k��,3.9,��
2022/11/21,19:30,0.566,0.817,0.517,1.038,0.721,0.332,0.586,0.554,�k�k��,3.5,��
2022/11/21,19:40,0.568,0.817,0.518,1.036,0.721,0.332,0.587,0.553,�k�k��,2.9,��
2022/11/21,19:50,0.569,0.817,0.518,1.036,0.722,0.332,0.587,0.554,�k��,2.6,��
2022/11/21,20:00,0.567,0.818,0.519,1.038,0.722,0.332,0.587,0.553,�k��,2.5,��
2022/11/21,20:10,0.568,0.815,0.518,1.037,0.723,0.332,0.586,0.554,�k��,2.6,��
2022/11/21,20:20,0.566,0.818,0.518,1.037,0.722,0.333,0.586,0.554,�k�k��,2.0,��
2022/11/21,20:30,0.566,0.817,0.520,1.040,0.721,0.333,0.587,0.553,�k�k��,2.0,��
2022/11/21,20:40,0.566,0.816,0.519,1.036,0.722,0.332,0.586,0.555,�k��,2.2,��
2022/11/21,20:50,0.568,0.814,0.520,1.035,0.721,0.332,0.587,0.553,�k��,2.9,��
2022/11/21,21:00,0.568,0.815,0.517,1.037,0.721,0.331,0.586,0.553,�k��,3.2,��
2022/11/21,21:10,0.568,0.817,0.518,1.038,0.722,0.332,0.588,0.554,�k��,2.9,��
2022/11/21,21:20,0.566,0.816,0.517,1.035,0.721,0.334,0.586,0.553,�k��,2.8,��
2022/11/21,21:30,0.567,0.816,0.519,1.039,0.722,0.331,0.587,0.554,�k�k��,3.6,��
2022/11/21,21:40,0.567,0.817,0.520,1.035,0.721,0.332,0.586,0.554,�k�k��,3.9,��
2022/11/21,21:50,0.565,0.817,0.519,1.039,0.723,0.332,0.588,0.554,�k�k��,3.2,��
2022/11/21,22:00,0.567,0.818,0.519,1.037,0.721,0.331,0.585,0.553,�k�k��,2.9,��
2022/11/21,22:10,0.566,0.817,0.518,1.037,0.722,0.332,0.585,0.553,�k��,2.5,��
2022/11/21,22:20,0.566,0.815,0.519,1.036,0.721,0.333,0.586,0.554,�k��,2.6,��
2022/11/21,22:30,0.568,0.816,0.518,1.036,0.720,0.332,0.588,0.553,�k��,2.6,��
2022/11/21,22:40,0.567,0.816,0.519,1.037,0.722,0.333,0.587,0.553,�k��,1.7,��
2022/11/21,22:50,0.567,0.818,0.520,1.038,0.720,0.333,0.587,0.553,��,0.8,��
2022/11/21,23:00,0.568,0.818,0.519,1.038,0.723,0.333,0.587,0.553,�쐼,0.9,��
2022/11/21,23:10,0.568,0.816,0.519,1.037,0.722,0.333,0.586,0.554,�k�k��,0.9,��
2022/11/21,23:20,0.567,0.816,0.518,1.038,0.722,0.332,0.586,0.553,�k��,1.7,��
2022/11/21,23:30,0.566,0.818,0.519,1.037,0.722,0.332,0.587,0.553,�k,0.6,��
2022/11/21,23:40,0.566,0.816,0.520,1.037,0.721,0.333,0.587,0.554,�k�k��,0.9,��
2022/11/21,23:50,0.567,0.816,0.517,1.038,0.723,0.334,0.586,0.554,�k��,1.9,��
